Find LEO Express 1

NORAD ID: 58301 Int'l Des: 2023-174 Owner: IMPUL Country: US operational
LEOCIRCULARRETROGRADESSO

リアルタイム位置

3D地球を読み込み中...

LEO Express 1について

説明を読み込み中...

次回通過

Passes for default location (London). Set your location on the main map for personalized predictions.

高度履歴

Loading altitude history...

軌道要素

1 58301U 23174AX 26107.26998304 .00006432 00000-0 18207-3 0 9997
2 58301 97.5197 191.5862 0074646 340.1138 19.7198 15.33860788135559
Epoch: Apr 17, 2026 • Age: 9 hours

現在のステータス

高度 511.3 km
速度 7.58 km/s
衛星直下点 -16.61°S, 63.54°W
打ち上げ日 Nov 11, 2023
運用期間 2.4 years
タイプ other

技術仕様

分類 Payload
質量 250.00 kg
乾燥質量 200.00 kg
総質量 250.00 kg
長さ 0.90 m
直径 0.50 m
スパン 0.90 m
形状 Box
製造者 IMPUL
バスタイプ Mira
フェーズステータス In Orbit
所有者/国 IMPUL/US

Most Searched